Wind_Speed
56 55 53 51 49 47 45 43 41 40 39 38 37 35 33 31 30 28 28 27 27 27 26 27 27 27 27 27 27 27 26 26 25 25 25 24 24 23 23 24 24 23 23 22 22 21 20 19 18 18 17 17 16 16 15 15 14 14 14 14 13 12 11 10 9 9 9 9 9 9 9 9 9 9 9 9 8 8 7 7 7 7 7 7 8 9 9 10
57 56 54 52 50 48 45 44 42 41 40 39 37 35 33 31 30 28 28 27 27 26 26 27 27 27 27 28 28 28 27 27 26 26 25 24 23 23 23 23 23 23 22 22 21 20 20 19 18 18 17 17 16 16 15 15 15 14 14 14 13 12 10 10 10 10 10 10 9 10 10 10 11 11 10 10 9 9 8 8 8 8 8 9 10 10 11 12
57 56 55 53 51 49 46 44 42 41 41 40 38 36 34 32 30 29 28 27 27 27 27 27 27 27 27 27 28 28 28 28 27 26 25 24 23 22 22 22 22 22 21 21 20 20 19 19 19 18 18 17 16 16 15 15 15 15 14 14 13 11 10 10 10 11 10 10 10 11 11 11 12 12 12 11 10 9 9 9 9 9 9 10 11 12 13 13
57 57 56 54 52 50 47 45 44 42 42 41 39 37 35 33 31 30 29 28 28 27 27 27 27 27 26 26 27 27 27 28 27 27 26 25 23 23 22 22 22 22 21 21 20 20 19 19 19 18 18 17 17 16 16 15 15 15 14 13 12 12 11 11 11 11 11 11 12 12 12 12 13 13 13 12 10 9 9 9 9 9 10 11 12 13 14 14
57 57 56 55 53 51 48 47 45 44 43 42 40 38 36 34 32 31 30 29 29 28 28 28 27 27 27 27 27 27 27 28 28 27 26 25 23 23 23 23 22 22 21 21 21 20 20 19 19 19 18 17 17 17 16 16 16 15 14 13 13 12 12 12 12 12 12 13 13 13 13 12 13 13 13 12 10 9 10 10 9 10 11 12 13 13 14 15
57 57 56 55 53 51 50 48 46 45 44 43 41 38 36 34 33 32 31 30 30 29 29 28 28 28 27 27 27 27 28 28 27 27 26 25 24 24 24 23 23 22 22 22 21 21 20 20 19 18 18 18 18 17 17 17 16 15 14 14 13 13 12 13 13 13 13 13 12 12 12 11 12 12 13 12 9 8 10 10 10 10 11 13 13 13 14 15
58 57 57 55 54 52 51 49 48 47 46 44 42 39 37 35 34 32 32 31 31 30 30 29 29 28 28 28 28 28 28 28 27 26 26 25 25 25 25 24 24 23 23 22 22 21 20 20 19 19 19 18 18 17 17 17 16 15 14 14 13 13 13 13 13 12 11 11 10 10 10 10 10 11 12 11 8 8 10 11 11 11 12 13 13 13 14 16
58 58 57 56 54 53 52 50 49 48 47 45 43 41 39 36 35 33 32 32 32 31 31 30 30 30 29 29 29 29 29 28 27 26 26 26 26 26 26 25 24 24 23 22 22 21 21 20 20 20 19 19 18 18 18 17 16 15 14 14 13 13 12 12 11 10 10 9 9 8 8 9 9 11 13 11 8 9 11 11 11 12 12 13 13 14 16 17
59 59 58 57 56 54 53 52 51 49 48 46 44 42 40 38 36 34 33 32 32 32 32 32 31 31 30 30 30 30 29 28 28 27 26 27 27 27 27 26 25 24 23 23 22 21 21 21 20 20 19 19 19 18 18 17 16 15 14 14 13 12 12 11 10 9 9 8 8 8 8 9 9 12 13 11 9 10 11 11 11 12 13 13 14 15 17 18
59 59 58 58 56 55 54 53 52 51 49 47 45 43 41 39 37 35 34 34 33 33 33 33 33 32 32 31 31 31 30 29 29 28 27 28 28 28 28 27 26 25 24 23 23 22 22 21 21 21 20 20 19 19 18 17 16 15 14 13 13 12 12 11 10 9 8 8 9 9 8 9 11 14 13 11 10 11 11 11 12 12 13 14 15 16 17 18
60 60 59 58 57 56 55 54 53 52 51 49 47 45 43 40 38 37 35 35 35 35 34 34 34 34 33 33 33 32 31 31 30 29 28 29 29 29 29 28 27 26 25 24 23 23 22 22 22 22 21 21 20 19 19 17 16 16 15 14 13 13 12 11 10 10 9 9 10 9 9 10 13 14 12 10 10 10 10 12 12 13 14 15 16 16 17 18
60 60 60 59 58 57 56 55 54 53 52 50 48 46 44 42 40 38 37 36 36 35 35 35 35 35 34 34 34 33 32 32 31 30 30 30 30 31 30 29 28 27 26 25 24 24 23 23 23 23 22 21 21 20 19 18 17 16 16 15 14 14 13 12 11 11 11 10 10 11 9 10 14 14 11 10 10 10 10 11 12 14 14 15 16 17 18 19
61 61 60 60 59 58 57 56 55 54 53 51 49 47 45 44 42 40 39 38 37 36 36 36 36 36 36 36 35 34 33 33 32 31 31 31 32 32 31 30 29 28 27 26 25 25 25 24 24 23 23 23 22 20 19 19 18 18 17 16 15 15 14 13 14 13 12 12 12 12 10 11 15 14 12 11 10 10 11 12 13 14 15 16 17 18 19 20
61 61 61 60 60 59 58 57 56 55 54 52 51 49 47 45 43 42 40 39 38 38 37 37 36 36 37 37 35 35 35 34 33 33 33 33 34 33 33 32 31 29 28 27 27 26 26 26 25 25 24 23 22 21 21 20 20 19 19 18 17 16 15 15 16 15 14 14 15 14 11 12 15 15 14 13 12 12 13 13 14 15 16 17 18 19 20 21
61 61 61 61 61 60 59 58 57 56 55 54 52 50 49 47 45 43 42 41 40 39 38 38 37 37 38 37 36 36 35 35 34 34 34 34 35 35 34 33 32 31 30 29 28 28 28 27 27 26 25 24 23 23 22 21 21 21 20 19 18 18 17 16 17 17 17 17 17 16 13 13 16 17 16 15 14 14 14 15 16 17 18 19 20 21 22 23
61 62 62 62 61 61 60 59 58 57 56 55 53 52 50 48 47 45 44 43 42 41 40 40 39 38 38 38 37 37 36 36 35 35 35 35 36 37 36 35 34 33 32 31 30 30 29 29 28 27 26 26 25 24 24 24 23 23 22 21 19 19 19 18 19 20 21 20 19 18 15 14 16 18 18 18 16 16 16 17 18 19 20 21 22 23 24 25
62 62 62 62 62 62 61 61 60 59 57 56 55 53 52 50 48 47 46 45 44 43 42 41 40 40 40 39 38 38 37 36 36 36 36 36 37 38 38 37 36 35 34 33 32 32 31 30 30 29 28 28 27 26 26 26 26 25 24 22 21 21 21 21 22 23 23 22 20 20 16 14 17 19 19 18 18 17 16 18 20 21 22 23 24 26 26 27
62 63 63 63 63 63 62 62 61 60 59 58 56 55 53 52 50 49 48 47 46 45 44 44 43 42 42 40 39 38 37 37 37 37 38 38 38 39 40 39 38 37 36 35 34 34 33 32 32 31 30 29 28 27 28 29 29 27 25 23 23 23 23 24 24 24 25 23 21 21 18 15 17 19 19 19 18 17 16 18 20 22 24 25 26 27 28 28
61 62 62 63 63 63 63 62 62 61 60 59 58 57 55 54 53 51 50 49 48 48 47 46 45 44 43 41 39 39 38 38 38 38 39 39 40 40 41 41 41 39 38 37 36 35 35 34 34 33 31 30 29 31 33 32 29 27 26 25 25 25 25 26 26 25 25 24 22 22 21 17 16 18 19 20 19 17 17 19 21 23 25 27 28 29 29 29
59 60 61 62 63 63 63 62 62 62 61 60 59 58 57 56 55 54 53 51 51 50 49 48 46 45 44 41 40 40 40 40 40 40 40 41 41 42 43 43 43 42 41 40 38 37 36 36 35 34 33 33 33 35 35 31 29 28 28 28 28 27 27 27 27 26 26 26 24 23 24 21 17 17 18 20 21 19 19 20 21 23 25 27 29 30 30 30
57 59 60 61 62 63 63 62 62 62 61 61 60 59 58 57 56 55 54 53 52 51 50 49 48 47 45 43 43 42 42 42 42 42 42 42 42 43 44 44 45 44 43 42 40 39 39 38 37 36 35 35 36 36 34 32 31 31 31 31 30 29 29 29 28 27 28 29 26 25 27 25 20 19 19 20 22 21 21 23 23 24 26 27 29 30 31 31
56 57 59 60 61 61 62 62 62 62 62 61 61 60 59 58 58 56 55 55 55 54 53 52 51 50 48 46 45 44 44 43 43 43 43 43 43 44 45 45 46 46 45 44 44 43 42 41 40 38 37 38 39 37 35 34 34 34 34 33 33 32 31 31 31 29 29 30 29 28 30 28 25 23 22 21 23 23 23 24 25 26 27 28 29 30 31 31
57 57 57 58 60 61 61 62 62 62 62 61 60 60 59 59 59 58 58 58 57 56 56 55 54 53 51 49 47 46 45 44 44 44 44 45 45 45 45 46 47 48 47 47 46 46 45 44 42 40 40 41 40 38 37 37 36 36 36 35 35 34 34 34 33 31 31 32 31 31 32 32 29 26 24 24 24 24 24 25 26 27 28 29 30 30 31 31
58 58 58 57 58 59 60 61 61 61 61 61 60 59 59 59 59 59 59 59 59 58 57 57 56 55 53 51 49 48 47 46 45 45 45 46 47 47 47 47 48 49 48 49 49 48 48 46 44 43 44 43 42 41 40 39 39 38 38 38 38 37 37 37 35 33 33 33 33 33 34 36 33 28 26 26 26 25 25 26 27 27 29 30 30 30 31 31
58 58 58 58 57 57 58 59 60 60 60 59 58 59 59 58 59 59 58 59 61 60 59 58 57 57 55 53 52 50 49 48 47 46 46 47 47 48 49 48 49 49 49 50 50 50 50 48 47 46 46 45 44 43 42 42 42 41 41 41 41 41 40 39 37 36 36 36 35 34 38 39 36 31 27 27 27 27 27 28 27 28 29 30 30 30 31 32
58 58 58 58 58 57 57 57 57 58 58 57 58 58 58 57 57 58 58 59 62 62 61 60 59 58 57 56 54 52 51 50 48 47 47 47 47 49 49 49 49 50 50 50 51 52 51 49 48 48 47 47 46 45 45 44 44 44 44 43 43 43 42 41 40 39 39 39 36 36 40 42 39 35 31 29 29 28 29 28 28 29 30 29 30 31 32 32
58 59 59 58 57 57 57 56 56 56 55 55 56 56 56 56 56 56 55 57 63 64 61 62 61 59 57 56 55 53 53 51 48 49 48 47 48 48 50 50 50 50 49 49 51 52 51 50 49 50 49 48 48 47 47 46 47 47 46 45 45 45 44 43 43 42 42 42 39 39 42 44 42 39 35 33 31 29 29 29 30 30 30 29 30 32 32 32
59 59 59 59 57 57 57 57 56 56 55 55 55 54 54 54 53 54 52 55 65 66 62 62 62 61 59 57 55 55 55 52 50 50 49 48 49 48 49 50 49 50 49 49 51 52 51 50 50 51 50 51 50 49 48 48 49 50 48 47 46 46 46 45 45 45 45 44 43 43 44 43 44 45 43 37 32 31 30 30 31 32 31 30 31 32 32 32
59 59 59 59 59 59 57 56 55 55 55 55 55 54 54 53 52 51 50 56 68 69 63 62 63 62 61 59 58 57 56 55 53 51 50 50 50 49 49 49 49 49 50 50 51 51 51 50 51 52 52 53 52 51 51 51 51 51 50 49 48 48 47 47 47 46 47 47 45 45 45 43 44 49 49 40 34 34 33 33 33 33 33 32 31 32 32 31
56 57 58 58 59 60 58 57 55 54 54 54 54 54 53 53 52 52 53 61 69 69 65 64 63 63 61 60 59 59 58 57 55 53 52 52 51 50 50 49 49 49 50 50 51 51 51 50 51 52 53 53 52 52 52 52 52 52 52 51 50 50 49 48 48 47 49 49 47 47 47 44 47 54 50 41 38 38 36 36 36 35 34 34 33 33 31 30
55 56 56 56 56 58 58 58 57 55 54 53 53 53 53 54 53 54 58 63 66 68 67 64 63 63 61 60 59 58 59 58 56 54 54 53 53 53 52 51 51 51 51 52 51 51 51 51 51 51 52 52 52 52 52 52 53 53 53 53 52 51 50 49 50 50 52 52 49 49 49 47 52 57 52 44 43 42 40 39 38 37 36 36 36 34 32 30
55 56 56 55 54 55 56 57 58 57 56 55 55 55 55 56 57 59 60 59 62 69 69 64 63 62 61 61 59 57 57 57 56 54 54 53 53 54 53 52 51 51 52 52 52 52 52 52 52 51 52 52 52 53 53 53 53 53 53 51 50 50 50 51 52 53 55 54 51 51 52 53 57 58 54 49 46 44 43 42 41 39 39 39 38 35 33 32
53 56 56 55 53 52 53 56 58 58 58 58 58 58 58 60 62 61 60 58 62 69 67 62 62 61 60 60 59 57 57 56 56 54 54 54 54 54 53 53 53 52 52 53 53 53 53 53 53 53 53 53 53 53 52 51 50 49 49 49 49 49 51 54 56 56 57 55 53 53 55 59 61 59 55 51 47 45 44 43 44 44 42 41 40 37 35 34
51 54 56 56 54 52 53 56 57 56 57 59 58 60 62 65 64 61 61 61 63 65 63 61 60 59 59 59 58 57 56 56 56 54 54 54 55 56 55 55 55 54 53 54 55 54 54 55 54 54 53 52 51 50 50 49 48 48 48 49 52 52 54 56 57 58 57 56 55 56 59 63 63 60 56 53 49 46 45 44 45 46 45 43 41 39 38 37
50 51 53 54 56 55 54 55 55 54 55 55 58 63 65 64 61 59 62 63 63 63 62 62 61 58 58 58 57 56 56 56 56 55 55 54 54 55 54 54 53 53 52 53 54 53 54 55 54 52 52 50 49 48 48 49 49 49 50 52 55 55 54 55 56 56 56 57 60 62 65 65 63 61 60 56 51 47 46 45 44 46 47 44 42 41 40 39
50 51 51 51 54 55 54 57 58 56 55 56 61 67 64 58 54 55 60 62 62 62 63 64 63 60 59 57 56 56 55 56 55 55 55 54 54 54 52 52 51 51 51 51 53 53 52 53 52 50 49 48 47 47 46 47 48 49 50 52 54 53 51 51 53 55 55 59 65 66 66 64 62 62 61 56 51 48 46 45 45 46 47 46 44 43 42 43
50 52 53 52 52 53 55 58 59 58 58 61 65 64 57 53 53 54 56 58 58 59 61 64 64 62 60 58 57 56 54 54 54 54 54 53 54 54 52 52 51 51 51 49 51 53 51 52 52 50 49 48 46 46 46 46 47 49 51 52 50 49 48 49 52 56 57 61 65 66 66 64 63 63 60 55 51 49 48 46 47 46 45 45 45 45 45 45
51 53 55 55 55 55 56 58 58 58 60 65 67 62 56 54 53 53 54 55 56 57 59 61 62 62 62 61 60 57 56 55 53 53 52 53 54 53 51 52 51 50 49 47 49 51 50 50 53 53 51 50 48 48 49 49 51 53 53 51 48 48 49 50 53 56 57 60 62 63 65 65 64 62 58 55 53 51 49 48 47 47 45 45 46 46 46 46
53 54 55 57 57 57 58 60 61 61 64 67 66 62 58 56 54 55 56 54 54 56 57 59 59 60 61 62 62 61 59 58 56 54 54 53 54 53 52 51 50 49 48 48 49 50 49 48 50 53 52 51 51 51 53 53 52 51 50 49 48 49 51 53 55 56 55 57 59 61 65 65 62 59 58 57 55 52 50 49 48 48 47 47 46 45 46 46
57 55 55 56 59 60 61 63 65 65 66 67 64 59 57 56 56 57 57 55 56 56 56 56 58 59 59 59 60 61 60 60 60 58 57 56 55 55 54 52 51 50 48 48 48 48 49 48 50 54 54 53 53 53 53 52 50 48 48 49 50 51 52 54 56 56 55 56 57 59 65 64 59 58 58 57 56 54 53 52 49 47 47 47 46 44 45 47
63 60 57 57 60 63 64 65 66 65 63 63 63 62 60 58 57 56 56 57 58 57 56 56 57 58 60 58 57 56 56 59 61 60 60 60 58 58 56 54 52 51 49 50 50 49 51 51 52 54 56 55 54 52 51 50 50 49 50 52 52 52 52 53 56 57 55 55 55 57 63 62 58 58 58 56 56 55 54 52 48 47 47 47 47 47 48 48
67 64 61 60 61 64 66 67 67 65 63 60 60 61 61 60 59 58 57 58 58 58 58 58 57 57 58 57 56 55 54 56 58 59 60 60 60 59 58 55 53 52 51 52 51 50 51 52 52 55 57 57 55 54 52 52 52 53 54 55 56 57 57 56 57 58 56 56 55 57 63 60 55 56 56 54 55 55 55 53 50 51 50 48 49 51 51 51
68 67 65 65 64 65 68 70 70 68 65 61 59 59 61 62 62 61 60 60 59 59 58 58 58 58 58 56 55 55 54 54 56 57 57 57 58 59 59 58 55 54 53 54 54 53 53 54 55 57 59 59 58 56 56 56 57 59 59 60 59 59 58 56 56 57 58 60 58 58 64 62 56 56 56 56 56 57 58 58 55 54 53 52 54 54 53 53
68 69 68 68 67 67 70 72 72 71 67 64 63 61 61 64 65 64 61 61 61 59 59 59 58 59 59 58 57 55 53 53 54 54 54 55 56 58 58 59 58 57 56 56 55 55 55 56 56 57 60 62 62 62 62 62 63 64 62 61 60 60 59 59 58 58 59 61 60 62 67 64 59 58 58 59 60 60 59 60 59 58 56 55 57 57 54 52
67 69 70 70 68 67 69 70 72 72 70 68 68 65 62 63 66 65 63 63 63 62 62 62 61 60 59 58 58 56 55 54 53 52 53 53 53 55 56 57 58 57 57 58 57 57 58 58 58 59 62 65 67 67 66 65 63 62 61 60 59 59 59 60 59 58 60 63 63 66 69 65 60 60 61 61 61 61 60 60 62 61 59 57 58 58 55 50
67 69 71 71 71 69 69 70 71 73 72 72 71 69 65 63 64 65 65 65 66 66 66 65 64 63 63 61 59 57 56 56 55 54 53 52 52 52 53 54 56 56 56 57 57 59 61 62 62 62 64 67 67 66 65 63 61 60 60 59 60 59 58 59 59 61 63 65 67 69 70 67 62 59 61 62 62 63 62 62 62 61 59 58 57 58 56 51
67 70 70 71 72 72 72 72 72 74 74 74 74 72 69 66 64 66 67 66 66 67 67 68 68 67 67 66 63 61 59 59 60 58 55 54 54 54 54 55 56 56 57 57 58 59 61 62 62 63 64 64 65 64 64 64 63 62 61 60 60 59 58 58 62 65 65 66 71 72 69 69 65 59 60 63 63 64 64 62 62 61 58 56 56 58 59 56
66 68 69 70 72 73 74 74 73 74 75 75 75 74 73 70 69 68 67 66 65 66 67 69 71 71 70 69 67 65 64 63 63 61 58 56 55 54 56 58 59 58 59 59 60 61 63 62 60 61 61 61 61 61 62 64 64 63 63 62 61 60 59 60 62 65 65 67 71 69 65 69 69 62 61 63 62 62 62 61 61 60 57 55 57 60 60 59
66 66 68 70 71 73 75 75 73 72 73 74 75 76 76 74 73 71 69 67 66 66 66 68 70 71 72 72 72 71 70 69 67 64 60 58 56 53 52 53 56 59 59 60 60 61 62 60 57 57 59 59 58 58 59 61 62 62 63 62 62 62 63 64 66 67 67 67 67 66 67 70 70 64 62 61 59 57 58 57 58 57 55 56 59 60 59 59
67 66 67 69 71 72 73 75 72 68 68 70 73 76 78 76 75 73 72 71 69 66 66 66 67 68 69 70 73 74 74 73 70 66 63 62 62 60 56 53 52 54 56 58 58 59 59 57 54 54 56 57 57 57 58 60 61 63 64 64 64 64 66 69 70 69 68 69 68 67 69 71 68 63 61 59 57 56 56 56 57 56 55 57 59 60 61 62
68 68 68 70 72 71 71 73 73 70 69 69 71 73 76 77 76 74 73 74 72 69 68 66 63 63 64 66 69 72 72 73 72 70 68 68 67 66 64 61 56 53 54 54 54 56 57 57 56 56 56 56 54 53 54 55 58 61 63 64 66 66 67 69 68 66 67 69 68 68 70 70 65 61 60 61 60 60 58 56 56 56 58 61 61 61 62 62
71 71 70 71 72 72 71 72 74 74 74 73 71 71 72 73 75 74 74 75 75 73 71 68 66 66 66 66 67 67 67 69 70 71 71 71 71 71 70 68 65 61 59 57 57 56 54 51 52 54 56 56 53 52 52 54 58 62 62 62 65 66 66 67 67 67 67 67 67 68 69 68 65 64 64 63 61 59 58 57 58 60 62 65 64 62 61 62
Wind_Direction
196 196 196 196 197 197 197 197 196 196 195 195 195 195 195 196 197 198 199 200 201 201 202 203 203 203 203 203 203 203 202 202 202 203 205 206 208 210 213 215 217 218 219 220 219 218 218 217 216 216 215 215 214 212 212 214 217 222 226 230 233 233 233 234 239 247 254 260 267 272 277 281 282 284 284 284 285 286 287 291 295 302 308 313 316 317 316 317
197 198 198 199 199 199 199 199 199 198 198 197 197 197 197 198 198 199 200 201 202 202 203 204 204 204 204 205 206 206 206 206 207 208 208 210 211 214 216 217 217 217 217 216 215 214 213 211 211 210 210 210 211 212 213 215 219 223 226 229 232 232 232 235 240 246 251 258 265 272 277 281 285 285 284 283 283 285 287 290 294 300 307 312 315 316 316 318
198 199 200 200 201 201 202 202 202 201 200 199 199 199 199 199 200 201 202 203 204 204 204 205 205 205 204 205 206 207 208 209 209 210 211 213 215 217 218 217 215 213 212 210 209 208 207 206 205 205 206 207 209 212 214 217 220 223 226 228 230 230 232 235 241 246 252 259 264 270 276 281 284 284 283 282 283 286 288 291 293 300 306 309 311 314 316 318
199 200 201 202 203 203 203 204 204 203 203 202 201 200 200 201 202 202 203 204 205 205 205 205 206 206 205 205 206 207 208 209 209 210 213 216 218 218 216 213 210 208 207 205 204 204 203 203 203 203 204 206 209 212 214 217 219 222 224 225 228 230 233 238 244 251 258 262 266 270 275 278 280 281 281 281 284 288 291 292 295 302 305 306 308 312 315 317
200 201 202 203 204 205 205 205 205 205 204 203 203 202 202 203 203 204 204 205 205 205 205 206 207 207 207 207 207 208 209 209 210 212 214 218 218 216 213 210 208 206 204 203 202 202 202 203 203 204 205 207 210 212 214 216 217 220 222 224 229 232 236 243 250 256 261 265 268 271 273 275 275 277 277 279 286 292 292 293 297 302 303 303 306 310 313 315
201 202 203 204 205 206 206 207 207 206 206 205 205 204 205 205 205 206 206 206 206 206 206 207 208 210 210 210 210 211 212 212 213 215 216 218 217 214 211 209 207 205 204 203 203 203 203 204 206 206 208 209 211 212 214 215 217 219 222 226 232 237 242 248 253 257 261 264 267 268 269 270 270 272 275 281 290 293 292 294 298 299 300 302 305 308 310 310
203 203 204 205 206 207 208 208 208 207 207 206 206 206 207 207 207 207 207 207 207 207 207 208 210 211 212 212 212 214 215 215 216 217 217 218 215 212 211 209 208 206 204 204 205 205 205 207 208 209 210 211 212 212 213 215 217 219 224 230 235 241 244 248 252 256 259 262 264 265 265 265 267 273 279 287 295 297 296 297 297 297 298 300 302 305 306 307
204 205 205 206 207 208 208 209 209 208 208 208 208 208 209 209 209 209 209 209 209 208 208 209 211 213 214 214 214 216 217 217 218 218 218 217 214 212 211 210 209 207 206 206 208 208 209 210 211 213 213 213 213 213 214 216 220 223 229 234 237 240 242 245 248 252 255 257 259 260 260 263 269 278 284 292 303 303 299 298 298 298 298 299 301 304 305 307
206 206 207 207 208 208 209 209 209 209 209 209 209 210 210 210 211 211 211 211 211 210 210 210 212 213 215 216 216 217 218 218 219 219 218 216 213 212 211 211 210 209 209 209 210 212 212 214 215 216 215 214 214 214 217 220 224 227 229 232 234 236 239 241 245 247 250 253 255 257 259 266 274 279 285 298 309 305 302 301 300 299 299 300 303 304 306 308
208 208 208 208 209 209 209 209 210 210 210 210 211 211 212 212 212 213 213 213 213 212 212 212 213 214 215 216 217 218 219 219 220 220 218 216 213 212 212 211 211 211 211 211 213 215 216 218 218 218 218 216 216 217 220 223 225 227 228 229 232 234 238 241 243 246 250 254 256 258 262 271 277 278 287 304 308 305 306 305 303 301 301 302 303 305 307 308
210 210 210 210 210 210 210 211 211 210 211 211 212 213 213 213 214 214 215 216 216 215 214 214 214 215 216 217 218 218 219 220 221 221 219 216 214 213 213 212 212 213 213 214 216 217 219 220 220 220 219 218 219 221 223 225 225 227 228 230 233 236 239 242 246 250 253 255 258 263 267 274 276 279 292 304 303 306 308 304 304 304 304 304 304 306 307 308
211 211 212 211 212 212 212 212 212 212 212 213 213 214 214 215 215 216 217 218 218 218 217 216 216 216 217 218 219 219 219 221 221 221 220 217 215 214 214 214 214 214 215 216 218 219 220 221 221 221 221 221 222 223 225 226 226 228 230 232 235 239 242 246 250 253 255 256 262 266 268 273 276 283 296 299 301 308 306 303 305 306 307 307 307 308 307 306
212 213 213 213 213 213 213 213 214 214 214 215 215 215 216 216 217 218 219 220 220 221 220 219 218 218 219 219 219 219 220 221 221 222 221 219 216 216 216 215 215 215 217 218 219 221 221 221 222 222 222 224 225 226 227 228 229 230 233 236 238 242 245 250 254 255 257 261 265 266 268 273 278 286 295 297 302 306 305 305 306 307 309 310 310 309 307 306
212 213 214 215 215 215 215 215 215 215 216 216 216 217 218 218 218 219 220 221 222 222 222 222 221 220 221 221 220 221 221 222 222 222 222 220 218 217 217 217 216 216 218 220 220 221 221 221 222 223 224 226 227 229 230 231 233 233 237 239 242 246 248 253 257 259 262 264 264 265 267 273 280 287 291 295 301 304 306 306 306 309 310 311 312 310 308 307
212 213 214 215 216 217 217 217 217 217 217 218 218 218 219 219 220 221 222 222 223 223 224 224 223 223 223 223 222 222 222 223 224 223 223 221 220 219 218 218 218 218 219 220 221 222 222 222 223 224 225 227 228 231 232 235 237 238 240 242 245 250 252 256 261 262 262 263 264 266 268 271 279 285 289 293 299 304 307 306 307 309 309 311 312 311 310 308
213 213 214 215 217 218 218 219 219 219 219 219 220 220 220 221 221 222 224 224 225 225 225 225 225 225 225 224 224 224 224 224 225 225 225 223 222 221 220 220 220 220 220 221 221 222 223 223 224 225 226 228 230 232 235 237 239 241 243 245 248 253 256 259 262 264 262 263 266 268 270 273 277 281 286 292 297 302 306 306 307 307 308 310 310 309 309 308
213 214 214 215 216 217 219 220 221 221 221 221 222 222 222 222 223 224 225 226 227 227 227 227 227 227 227 225 225 226 225 226 226 226 226 225 224 223 222 222 222 222 222 222 223 223 224 225 226 227 228 229 231 234 237 239 241 243 246 248 250 254 259 261 262 264 265 266 268 270 271 272 275 278 283 290 295 299 304 305 305 306 307 307 307 308 308 308
215 215 215 216 216 217 218 219 221 222 222 223 223 223 224 224 224 225 226 227 228 228 229 229 228 228 227 226 227 228 228 228 227 227 227 227 226 225 224 224 224 223 223 223 224 225 225 226 227 228 230 231 234 237 239 240 241 243 248 252 253 255 259 261 262 264 267 268 269 271 271 268 272 279 284 288 292 298 303 302 302 306 307 306 306 308 309 309
216 216 216 217 217 218 218 219 220 222 223 223 224 225 225 225 226 227 227 228 229 229 230 230 229 230 229 229 231 232 231 230 229 229 229 228 227 226 226 225 225 225 225 225 225 226 227 228 229 230 231 233 235 237 239 241 243 247 250 253 254 254 257 260 263 264 267 268 271 273 273 269 270 278 285 289 292 298 300 300 303 306 306 306 307 308 310 309
217 218 217 218 218 218 219 220 220 221 223 224 224 225 226 226 227 228 229 230 230 231 231 232 232 233 232 232 234 234 233 232 231 230 230 229 229 228 227 227 227 227 226 226 226 227 228 229 230 231 232 234 235 238 240 243 246 249 251 252 253 254 257 259 261 264 267 270 271 274 274 273 273 276 282 287 293 298 299 300 303 304 304 305 307 309 311 310
218 219 219 219 219 219 219 220 221 222 223 224 225 226 227 227 228 229 230 231 232 233 233 233 233 234 234 234 234 234 234 233 232 232 231 231 231 230 229 229 229 229 228 228 228 229 229 230 231 232 233 234 237 240 242 245 247 249 250 252 254 255 257 259 261 263 268 271 273 274 275 276 276 277 278 283 291 296 298 301 303 302 304 305 307 309 311 310
220 220 220 220 220 220 221 221 221 222 223 224 225 226 227 228 229 230 231 232 232 233 233 233 233 234 234 234 235 235 235 235 234 234 233 233 233 232 231 231 231 230 230 230 230 230 230 231 232 232 234 235 238 240 242 244 246 249 251 253 255 256 257 259 261 263 267 271 274 275 276 277 278 278 278 282 287 293 296 299 301 303 305 306 307 310 311 310
224 222 221 221 221 221 222 222 222 223 223 224 225 226 227 228 229 230 231 232 232 233 233 233 233 234 234 235 236 236 237 236 236 236 235 234 234 233 233 233 232 232 231 232 232 232 232 233 233 234 235 236 238 240 242 244 246 248 251 253 255 257 257 258 260 263 266 270 273 275 275 276 277 277 279 282 285 289 292 296 299 302 304 307 309 310 310 308
225 225 224 223 223 222 222 223 223 224 224 224 225 226 227 228 229 230 231 232 233 233 234 233 234 234 235 236 236 237 237 237 237 237 236 236 235 234 234 233 234 233 233 234 234 234 234 234 235 235 236 238 239 241 242 244 246 248 251 254 255 256 257 259 261 263 265 268 271 275 276 274 273 274 278 281 285 288 290 294 298 300 303 307 309 309 308 305
226 226 225 225 225 224 224 224 224 224 225 225 226 226 227 228 229 230 231 232 233 233 234 234 234 235 235 236 236 237 238 238 238 238 238 238 237 236 235 235 235 235 235 235 236 236 236 236 236 237 238 240 241 242 243 245 246 249 250 252 254 255 257 259 261 263 264 266 268 274 276 274 273 275 277 279 283 286 289 293 295 297 302 306 307 307 305 304
226 225 225 225 225 226 226 225 225 225 225 225 226 226 227 228 229 230 231 233 233 232 233 234 235 235 235 236 236 237 238 238 238 239 239 239 238 238 237 236 236 236 236 237 237 238 237 238 239 240 240 241 243 243 245 246 247 248 249 251 253 255 257 259 261 262 263 265 267 270 272 274 275 276 278 279 281 285 288 291 293 297 301 304 304 305 305 305
227 226 225 225 226 226 226 226 226 226 225 225 226 227 228 228 229 230 231 233 233 232 233 234 235 235 235 236 237 237 238 238 239 240 240 240 240 239 239 238 237 238 238 239 239 239 240 241 242 243 243 243 244 245 246 246 247 248 249 250 252 255 257 258 260 262 263 265 267 267 269 274 277 278 278 278 281 284 286 290 293 296 299 301 302 304 305 306
228 227 226 225 225 226 226 226 226 227 226 227 227 227 227 228 228 229 230 232 233 231 232 234 235 236 236 236 237 237 238 237 238 240 240 241 241 240 240 239 239 239 239 239 240 240 240 242 243 244 244 244 245 246 247 247 248 249 250 251 253 255 257 258 259 261 262 264 265 266 269 274 279 281 280 279 281 285 287 290 292 295 298 300 301 303 305 306
229 229 228 226 226 226 226 227 227 227 228 228 228 228 228 228 228 228 229 231 233 232 232 234 235 236 236 237 237 238 238 237 238 239 240 240 240 240 240 240 240 240 240 240 241 241 241 242 243 244 245 245 246 247 248 249 250 251 252 253 254 256 257 258 259 260 262 263 264 267 269 273 278 278 277 279 283 286 289 291 292 294 297 298 300 302 303 303
228 229 229 228 227 227 226 227 228 228 228 228 228 228 229 229 229 229 230 232 234 235 234 233 235 237 237 238 239 240 240 240 239 239 240 241 241 241 241 241 241 241 242 242 242 243 243 243 244 246 246 247 248 249 249 251 252 253 254 255 255 256 257 258 259 260 261 262 264 268 270 273 275 274 274 280 285 287 289 291 292 294 295 297 300 300 300 301
227 228 230 230 230 229 228 228 228 228 228 228 228 228 228 229 229 229 232 235 237 238 237 235 235 237 238 239 239 240 241 241 241 240 241 242 242 243 243 243 243 244 244 244 245 246 246 246 246 248 249 250 250 251 251 251 252 253 253 255 256 257 258 259 260 260 261 262 265 267 269 271 271 272 276 282 285 287 290 291 292 293 294 296 298 298 299 300
228 229 229 231 230 229 229 229 229 229 229 229 229 230 229 229 229 231 234 236 237 239 238 237 237 238 239 240 239 239 240 240 241 241 241 241 242 243 244 245 245 246 247 248 248 248 249 249 249 249 250 250 251 251 252 252 252 253 254 256 257 259 259 260 260 260 261 262 264 266 269 269 269 271 276 280 283 287 290 292 292 292 293 295 297 298 299 299
227 228 229 230 230 230 230 230 231 231 231 231 231 232 232 232 232 234 237 236 237 240 239 238 238 237 237 238 239 239 239 240 240 241 240 240 241 241 242 243 244 246 247 247 248 248 249 249 250 250 250 251 252 253 254 254 255 255 256 256 257 257 258 259 259 260 261 262 264 266 267 268 269 271 275 278 281 285 288 290 291 292 293 295 297 298 299 300
222 225 227 229 230 230 229 230 232 233 233 233 234 233 233 234 235 236 237 236 237 240 241 240 239 238 237 237 237 238 239 239 240 240 241 240 240 241 241 242 244 245 246 247 248 248 249 250 250 251 252 252 253 253 254 254 254 253 253 253 253 254 256 258 259 261 263 264 264 264 264 266 268 272 275 277 279 282 285 286 288 290 291 293 297 299 299 299
220 222 225 227 228 229 229 231 231 232 233 233 234 235 235 237 238 238 238 237 237 239 240 240 239 238 238 238 237 237 238 240 240 241 241 241 242 242 243 243 245 246 247 248 250 250 251 252 251 252 252 253 253 252 252 252 251 251 251 252 254 255 257 258 260 262 265 265 263 262 262 265 269 273 275 277 279 280 281 283 285 287 289 293 297 297 297 298
221 222 222 223 225 225 227 231 231 230 231 231 232 234 236 238 239 239 239 239 239 239 239 241 241 239 238 238 238 237 237 239 240 241 242 242 243 243 243 244 245 246 247 249 251 250 251 252 251 251 252 252 252 253 252 252 252 252 252 253 255 256 256 258 260 260 260 260 261 262 264 266 270 272 273 275 278 279 280 281 283 284 289 294 295 295 296 298
220 222 223 222 223 222 222 228 231 230 230 232 233 234 235 235 235 235 237 237 238 238 240 242 243 242 241 240 239 239 239 239 239 239 241 242 242 242 242 243 244 245 247 247 249 249 250 250 249 248 249 249 249 250 250 249 250 251 251 251 252 253 253 254 256 256 256 258 261 264 266 268 268 269 271 274 276 277 277 279 280 283 288 291 292 294 296 297
218 220 222 223 223 222 221 225 230 232 232 234 236 235 234 233 232 234 236 236 236 236 238 241 243 243 242 241 239 240 241 241 239 239 240 241 242 241 242 243 243 244 245 245 247 247 248 249 248 246 247 247 246 247 247 247 248 249 249 249 249 250 251 252 254 256 258 260 262 264 265 266 267 269 274 276 276 276 277 278 280 283 286 287 290 292 293 293
220 217 219 221 222 222 222 223 227 231 232 234 235 235 234 232 232 233 234 235 235 235 235 238 241 242 242 241 240 238 239 241 240 240 240 239 240 240 240 242 242 241 242 244 246 247 247 249 249 247 246 246 245 245 246 247 248 249 250 251 251 252 253 253 253 255 258 260 262 263 263 265 268 271 274 275 276 277 278 279 280 283 286 287 288 289 290 290
226 219 216 218 220 220 220 222 224 226 228 230 232 233 233 233 232 233 234 234 234 234 234 236 239 242 242 241 240 239 238 240 239 240 240 238 238 237 237 238 240 240 241 243 244 245 245 247 248 247 246 245 245 246 248 249 250 251 252 252 252 252 253 254 255 255 256 258 261 262 264 267 271 271 272 274 276 277 277 278 280 282 284 285 285 286 287 288
232 225 218 217 219 219 220 222 222 221 223 226 229 231 231 233 233 233 233 234 235 234 234 236 237 240 241 241 240 239 239 239 239 239 240 238 237 237 236 236 238 239 241 242 243 245 246 248 249 250 249 249 249 249 250 250 250 250 251 251 251 251 252 253 254 254 254 256 259 261 265 269 270 271 272 274 276 277 277 278 281 281 281 282 285 286 286 286
234 230 224 223 223 221 222 223 223 223 222 222 226 228 229 231 232 232 232 233 235 235 235 236 237 239 240 240 240 240 240 241 240 239 240 239 238 239 239 238 238 239 241 243 244 245 247 248 249 250 250 250 250 249 249 250 249 249 249 249 249 250 250 251 253 256 257 258 259 260 264 266 268 270 272 274 275 278 279 280 281 281 281 284 286 286 286 287
234 233 229 229 229 227 226 225 225 226 224 221 223 225 225 227 229 231 231 231 233 234 235 236 237 239 241 241 241 241 241 242 242 241 240 240 239 239 240 240 240 240 241 242 242 243 243 244 245 246 247 248 249 248 248 249 249 248 248 249 249 250 252 253 256 258 258 259 260 260 262 265 267 269 272 274 274 276 278 279 281 282 284 286 286 286 287 288
233 233 232 232 232 231 231 228 227 228 227 223 224 224 223 224 226 228 229 230 232 233 235 237 239 240 241 241 241 242 242 242 242 241 240 239 239 239 239 240 241 241 241 241 242 242 243 244 244 246 247 247 247 248 248 248 249 250 251 252 253 254 256 256 256 258 259 260 261 261 262 265 268 270 271 272 272 274 277 280 282 283 284 286 286 286 286 285
231 232 233 233 232 233 233 231 230 231 229 227 225 224 223 223 224 225 227 228 230 232 234 237 238 240 241 241 242 242 243 242 241 241 240 239 239 239 239 241 242 243 243 243 242 242 243 244 244 244 246 246 247 248 250 251 253 255 256 256 257 257 258 259 260 260 260 260 261 261 263 265 267 269 270 271 273 275 277 279 282 283 285 286 286 284 282 282
231 231 232 233 233 234 233 232 233 233 232 230 228 225 224 222 221 223 224 225 228 230 233 235 236 237 239 240 241 242 242 243 243 241 240 239 238 238 239 240 242 244 245 245 245 244 244 244 244 245 246 247 248 250 252 253 254 255 255 256 256 256 258 259 259 258 260 260 260 261 263 266 266 267 270 272 274 276 276 278 281 283 285 285 283 282 281 280
231 231 231 232 234 235 234 233 234 234 233 233 232 228 226 224 222 222 223 224 227 229 231 233 233 235 237 238 240 242 242 245 245 244 242 242 241 240 240 241 243 244 246 247 248 247 247 246 245 246 247 247 248 251 253 253 253 254 254 254 255 256 256 257 257 259 261 261 261 262 264 266 266 265 267 270 272 274 276 278 280 281 282 282 281 281 281 281
233 232 231 232 233 235 236 235 236 236 235 235 234 231 229 228 226 225 223 222 225 226 227 229 231 233 236 237 239 240 241 242 244 243 242 243 244 245 244 244 243 244 246 248 249 251 252 251 249 249 250 249 248 250 253 255 255 256 256 256 256 257 256 256 258 260 261 262 263 265 265 266 266 266 267 270 273 274 276 277 278 278 278 278 279 280 282 286
234 233 232 232 233 234 235 236 236 237 237 238 237 234 233 232 230 229 226 223 224 224 224 226 228 231 235 237 238 239 239 240 241 242 241 242 243 246 248 248 247 247 247 249 250 253 254 254 254 254 254 253 252 252 254 256 256 256 256 256 255 255 256 257 259 261 261 263 265 266 266 266 268 268 269 272 274 275 275 274 274 273 274 275 278 281 284 287
234 234 233 233 233 233 234 235 236 236 236 238 238 236 235 234 233 232 231 228 226 225 224 226 227 229 233 235 237 239 239 240 242 242 243 243 243 245 248 250 250 248 247 248 249 250 250 252 253 254 255 255 255 256 256 257 257 256 255 255 255 255 257 258 259 260 261 263 266 267 268 268 269 272 272 273 273 272 271 271 272 274 274 275 277 280 282 282
233 234 233 233 233 232 232 233 235 235 234 236 237 237 237 236 235 236 235 233 231 230 228 226 226 228 231 233 235 237 239 241 243 243 244 245 244 245 247 248 247 243 241 240 240 241 243 247 248 249 251 252 252 254 254 253 254 252 252 254 255 257 259 260 261 262 263 265 267 268 268 270 271 272 272 270 270 270 270 272 273 274 274 275 275 276 278 282
232 233 233 233 233 232 232 232 233 234 234 235 236 237 238 237 236 237 238 236 235 234 232 229 228 230 231 231 233 236 237 239 241 242 243 243 244 245 245 245 244 242 239 238 237 237 238 242 245 246 247 248 248 248 249 248 246 244 248 255 259 260 261 263 262 263 264 266 267 267 268 270 270 269 269 270 271 272 272 271 270 269 270 272 274 276 279 283
Height
5774 5777 5779 5782 5785 5787 5790 5792 5795 5797 5799 5801 5804 5806 5808 5811 5813 5815 5817 5819 5821 5822 5824 5826 5828 5830 5832 5833 5835 5837 5839 5841 5843 5844 5846 5848 5849 5851 5852 5854 5855 5856 5858 5859 5860 5861 5863 5864 5865 5866 5867 5868 5869 5870 5871 5872 5872 5873 5874 5875 5876 5877 5877 5878 5878 5878 5878 5878 5878 5878 5879 5879 5879 5879 5879 5879 5879 5879 5879 5879 5878 5878 5878 5878 5877 5877 5877 5876
5771 5774 5777 5780 5783 5786 5788 5791 5793 5795 5797 5800 5802 5805 5807 5809 5811 5813 5815 5817 5819 5821 5823 5825 5827 5828 5830 5832 5834 5836 5838 5840 5841 5843 5845 5847 5848 5850 5851 5852 5854 5855 5856 5857 5859 5860 5861 5863 5864 5865 5866 5867 5868 5869 5870 5871 5872 5873 5873 5874 5875 5876 5876 5877 5877 5877 5877 5877 5878 5878 5878 5878 5878 5878 5878 5878 5878 5878 5878 5878 5878 5877 5877 5877 5876 5876 5876 5875
5769 5772 5775 5778 5781 5784 5786 5789 5791 5794 5796 5798 5801 5803 5805 5807 5809 5811 5814 5816 5818 5820 5822 5823 5825 5827 5829 5831 5833 5835 5836 5838 5840 5842 5844 5846 5847 5849 5850 5851 5852 5854 5855 5856 5857 5858 5860 5861 5863 5864 5865 5866 5867 5868 5869 5870 5871 5872 5873 5874 5874 5875 5876 5876 5876 5876 5876 5877 5877 5877 5877 5877 5877 5877 5876 5877 5877 5877 5877 5877 5877 5877 5876 5876 5875 5875 5874 5874
5766 5769 5773 5776 5779 5781 5784 5787 5789 5792 5794 5797 5799 5801 5803 5805 5807 5810 5812 5814 5816 5818 5820 5822 5824 5826 5828 5830 5832 5833 5835 5837 5839 5841 5843 5844 5846 5847 5848 5849 5851 5852 5853 5854 5856 5857 5859 5860 5861 5863 5864 5865 5866 5867 5868 5869 5870 5871 5872 5873 5873 5874 5875 5875 5875 5875 5876 5876 5876 5876 5876 5876 5875 5875 5875 5875 5876 5876 5876 5876 5876 5876 5875 5875 5874 5874 5873 5873
5763 5767 5770 5773 5776 5779 5782 5785 5787 5790 5793 5795 5797 5799 5801 5803 5806 5808 5810 5812 5814 5816 5818 5820 5822 5824 5827 5828 5830 5832 5834 5836 5837 5839 5841 5842 5844 5845 5847 5848 5849 5850 5852 5853 5854 5856 5857 5859 5860 5861 5863 5864 5865 5866 5868 5869 5869 5870 5871 5872 5872 5873 5874 5874 5874 5874 5875 5875 5875 5875 5875 5875 5874 5874 5873 5874 5875 5875 5875 5875 5875 5874 5874 5873 5873 5873 5872 5872
5760 5764 5767 5771 5774 5777 5780 5782 5785 5788 5791 5793 5795 5798 5800 5802 5804 5806 5808 5810 5812 5814 5816 5819 5821 5823 5825 5827 5829 5830 5832 5834 5836 5838 5839 5841 5842 5844 5845 5846 5848 5849 5850 5852 5853 5855 5856 5858 5859 5860 5862 5863 5864 5865 5867 5867 5868 5869 5870 5871 5871 5872 5873 5873 5873 5873 5873 5874 5874 5874 5874 5874 5873 5873 5872 5873 5874 5874 5874 5874 5874 5873 5873 5872 5872 5872 5871 5871
5757 5761 5764 5768 5771 5774 5777 5780 5783 5786 5788 5791 5793 5796 5798 5800 5802 5804 5806 5808 5810 5812 5815 5817 5819 5821 5823 5825 5827 5829 5830 5833 5834 5836 5838 5839 5841 5842 5844 5845 5846 5848 5849 5851 5852 5854 5855 5857 5858 5859 5861 5862 5863 5864 5865 5866 5867 5868 5869 5870 5870 5871 5871 5872 5872 5872 5872 5873 5873 5873 5873 5873 5872 5872 5872 5872 5874 5874 5873 5873 5873 5872 5872 5871 5871 5871 5870 5870
5754 5757 5761 5765 5768 5771 5774 5777 5780 5783 5786 5789 5791 5793 5796 5798 5800 5802 5804 5806 5808 5810 5813 5815 5817 5819 5821 5823 5825 5827 5829 5831 5832 5834 5836 5837 5839 5840 5842 5844 5845 5847 5848 5849 5851 5852 5854 5855 5857 5858 5859 5861 5862 5863 5864 5865 5866 5867 5868 5869 5869 5870 5870 5871 5871 5871 5872 5872 5872 5872 5872 5872 5872 5871 5871 5872 5873 5873 5872 5872 5871 5871 5871 5870 5870 5869 5869 5868
5751 5754 5758 5761 5765 5768 5771 5774 5777 5780 5783 5786 5789 5791 5793 5796 5798 5800 5802 5804 5806 5808 5811 5813 5815 5817 5819 5821 5823 5824 5827 5829 5830 5832 5834 5836 5837 5839 5841 5842 5844 5845 5847 5848 5850 5851 5853 5854 5856 5857 5858 5860 5861 5862 5863 5864 5865 5866 5867 5867 5868 5869 5869 5869 5870 5870 5871 5871 5871 5871 5871 5871 5871 5870 5870 5871 5872 5871 5871 5871 5870 5870 5869 5869 5869 5868 5868 5867
5747 5751 5754 5758 5762 5765 5768 5771 5774 5777 5780 5783 5786 5789 5791 5793 5796 5798 5800 5802 5804 5807 5809 5811 5813 5814 5816 5818 5820 5822 5824 5827 5828 5830 5832 5834 5836 5837 5839 5841 5842 5844 5845 5847 5848 5850 5851 5853 5854 5856 5857 5858 5859 5860 5861 5862 5864 5865 5866 5866 5867 5867 5868 5868 5869 5869 5870 5870 5870 5870 5870 5870 5870 5869 5870 5870 5870 5870 5870 5870 5869 5869 5868 5868 5868 5867 5866 5866
5744 5748 5751 5755 5758 5762 5765 5768 5771 5774 5777 5780 5783 5786 5789 5791 5793 5796 5798 5800 5802 5805 5807 5808 5811 5812 5814 5816 5818 5820 5822 5824 5826 5828 5830 5832 5834 5836 5838 5839 5841 5842 5844 5846 5847 5848 5850 5851 5853 5854 5855 5857 5858 5859 5860 5861 5862 5863 5864 5865 5865 5866 5867 5867 5868 5868 5868 5869 5869 5869 5869 5869 5868 5868 5869 5870 5869 5869 5869 5869 5868 5868 5867 5867 5866 5866 5865 5864
5740 5744 5748 5752 5755 5759 5762 5765 5769 5772 5774 5777 5780 5783 5786 5788 5791 5793 5795 5798 5800 5802 5804 5806 5808 5810 5812 5813 5815 5818 5820 5822 5824 5826 5828 5830 5832 5834 5836 5838 5839 5841 5842 5844 5845 5847 5848 5850 5851 5852 5854 5855 5856 5857 5859 5860 5861 5862 5863 5863 5864 5865 5865 5866 5866 5867 5867 5867 5867 5867 5868 5868 5867 5867 5868 5869 5869 5868 5868 5868 5867 5866 5866 5865 5865 5864 5864 5863
5736 5740 5744 5748 5752 5755 5759 5762 5766 5769 5772 5775 5777 5780 5783 5786 5788 5791 5793 5795 5797 5800 5802 5804 5806 5808 5809 5811 5813 5816 5818 5820 5822 5824 5826 5828 5830 5832 5834 5836 5838 5839 5841 5842 5844 5845 5847 5848 5850 5851 5852 5853 5855 5856 5857 5858 5859 5860 5861 5862 5862 5863 5864 5864 5864 5865 5865 5866 5866 5866 5867 5866 5866 5866 5867 5867 5867 5867 5867 5866 5866 5865 5864 5864 5863 5863 5862 5861
5732 5736 5740 5744 5748 5752 5755 5759 5762 5765 5768 5771 5774 5777 5780 5783 5785 5788 5790 5793 5795 5797 5799 5801 5803 5805 5807 5809 5811 5814 5815 5817 5820 5822 5824 5826 5828 5830 5832 5834 5835 5837 5839 5840 5842 5843 5845 5846 5848 5849 5850 5852 5853 5854 5855 5856 5857 5858 5859 5860 5861 5861 5862 5863 5863 5863 5864 5864 5864 5865 5866 5865 5864 5865 5865 5865 5866 5866 5865 5865 5864 5864 5863 5862 5862 5861 5860 5860
5727 5731 5736 5740 5744 5748 5751 5755 5758 5762 5765 5768 5771 5774 5776 5779 5782 5785 5787 5790 5792 5794 5796 5799 5801 5803 5804 5807 5809 5811 5813 5816 5817 5819 5821 5823 5825 5827 5829 5831 5833 5835 5837 5838 5840 5841 5843 5844 5845 5847 5849 5850 5851 5852 5853 5854 5855 5856 5857 5858 5859 5860 5860 5861 5861 5861 5862 5862 5862 5863 5864 5864 5863 5863 5863 5864 5864 5864 5864 5863 5863 5862 5862 5861 5860 5860 5859 5858
5723 5727 5731 5735 5739 5743 5747 5751 5754 5758 5761 5764 5767 5770 5773 5776 5778 5781 5784 5786 5789 5791 5794 5795 5798 5800 5801 5804 5806 5809 5811 5813 5815 5817 5819 5821 5823 5825 5827 5829 5831 5832 5834 5835 5837 5839 5840 5842 5843 5845 5846 5848 5849 5850 5851 5852 5853 5854 5855 5856 5858 5858 5858 5859 5859 5859 5859 5860 5861 5861 5863 5863 5862 5861 5861 5862 5862 5862 5862 5862 5861 5860 5860 5859 5858 5858 5857 5856
5718 5722 5726 5730 5734 5738 5742 5746 5750 5753 5757 5760 5763 5766 5769 5772 5775 5778 5780 5783 5785 5788 5790 5792 5795 5797 5798 5801 5803 5806 5808 5810 5813 5815 5816 5818 5820 5822 5824 5826 5828 5830 5831 5833 5834 5836 5838 5839 5841 5842 5844 5845 5847 5848 5849 5850 5851 5852 5853 5855 5856 5856 5857 5857 5857 5856 5856 5858 5859 5859 5861 5862 5860 5859 5860 5860 5860 5861 5861 5860 5859 5859 5858 5857 5856 5856 5855 5854
5714 5717 5721 5725 5729 5733 5737 5741 5745 5749 5752 5756 5759 5762 5765 5768 5771 5774 5776 5779 5781 5784 5786 5788 5791 5793 5795 5798 5801 5803 5805 5807 5809 5812 5813 5816 5818 5819 5821 5823 5825 5827 5828 5830 5831 5833 5835 5837 5838 5840 5841 5843 5845 5846 5846 5846 5848 5850 5851 5853 5854 5854 5855 5854 5854 5854 5854 5855 5856 5857 5858 5860 5859 5858 5858 5858 5859 5859 5859 5858 5858 5857 5856 5855 5854 5853 5853 5852
5710 5713 5717 5720 5724 5728 5732 5736 5740 5743 5747 5751 5754 5758 5761 5764 5767 5769 5772 5775 5777 5780 5782 5785 5788 5790 5792 5796 5798 5800 5802 5804 5807 5809 5810 5813 5814 5816 5818 5820 5822 5823 5825 5827 5828 5830 5832 5834 5835 5837 5839 5841 5843 5842 5842 5843 5846 5848 5850 5851 5851 5852 5853 5852 5852 5852 5852 5852 5854 5854 5855 5857 5858 5857 5856 5856 5857 5858 5858 5857 5856 5855 5854 5853 5852 5851 5850 5850
5706 5709 5712 5716 5719 5723 5727 5731 5734 5739 5742 5746 5750 5754 5757 5760 5762 5765 5768 5771 5773 5776 5778 5782 5785 5787 5790 5793 5795 5796 5799 5801 5803 5805 5807 5809 5811 5813 5815 5817 5818 5820 5822 5823 5826 5828 5829 5831 5833 5835 5837 5838 5839 5838 5839 5842 5845 5846 5847 5848 5848 5850 5850 5850 5849 5850 5850 5849 5851 5852 5851 5853 5856 5856 5856 5854 5854 5855 5855 5855 5854 5853 5852 5851 5850 5849 5848 5847
5702 5705 5708 5712 5715 5719 5722 5726 5730 5734 5738 5742 5746 5749 5752 5755 5758 5761 5764 5767 5769 5772 5775 5778 5781 5783 5786 5789 5790 5792 5794 5797 5799 5801 5803 5806 5807 5809 5811 5813 5815 5817 5819 5821 5823 5824 5826 5827 5829 5831 5833 5835 5835 5836 5838 5841 5842 5843 5844 5845 5846 5847 5848 5847 5847 5848 5848 5846 5848 5849 5847 5849 5853 5854 5854 5853 5852 5853 5853 5852 5852 5851 5850 5849 5848 5847 5845 5844
5698 5701 5704 5707 5711 5714 5717 5721 5725 5729 5733 5737 5741 5744 5747 5750 5753 5756 5759 5760 5763 5767 5769 5773 5776 5778 5782 5784 5786 5789 5791 5793 5796 5798 5800 5802 5804 5806 5808 5810 5812 5813 5816 5817 5819 5820 5822 5824 5826 5828 5830 5831 5832 5834 5836 5838 5839 5840 5841 5842 5843 5844 5845 5844 5844 5846 5846 5844 5845 5846 5844 5845 5849 5850 5851 5852 5851 5851 5851 5850 5849 5848 5847 5847 5846 5845 5843 5841
5694 5697 5700 5703 5707 5710 5713 5717 5720 5725 5729 5732 5736 5739 5741 5744 5748 5751 5753 5755 5758 5760 5763 5767 5770 5774 5777 5780 5783 5785 5787 5789 5792 5794 5796 5799 5800 5802 5805 5806 5807 5809 5812 5813 5815 5816 5818 5820 5823 5825 5826 5827 5828 5831 5833 5834 5836 5837 5838 5839 5839 5840 5841 5841 5842 5843 5843 5842 5842 5843 5841 5841 5844 5847 5848 5849 5849 5849 5849 5848 5847 5846 5844 5844 5843 5842 5840 5839
5690 5694 5697 5700 5703 5706 5710 5713 5717 5721 5724 5728 5731 5733 5736 5739 5742 5745 5747 5749 5751 5755 5759 5762 5765 5769 5773 5776 5779 5781 5782 5785 5787 5790 5792 5794 5796 5798 5800 5802 5803 5805 5808 5809 5811 5812 5814 5816 5819 5821 5822 5823 5826 5828 5830 5831 5832 5833 5834 5835 5836 5837 5837 5837 5839 5840 5841 5840 5839 5839 5837 5835 5838 5843 5846 5846 5846 5846 5846 5845 5845 5843 5842 5842 5841 5839 5837 5836
5685 5689 5693 5696 5699 5703 5706 5710 5714 5717 5720 5723 5725 5727 5731 5734 5736 5739 5741 5742 5745 5749 5753 5757 5761 5764 5768 5771 5774 5777 5779 5781 5783 5786 5788 5789 5792 5794 5796 5798 5800 5802 5804 5805 5807 5808 5810 5813 5816 5817 5818 5820 5822 5824 5826 5827 5828 5829 5831 5831 5831 5832 5833 5834 5836 5837 5838 5837 5838 5838 5833 5829 5832 5839 5842 5844 5844 5844 5843 5843 5842 5841 5840 5840 5838 5837 5835 5833
5680 5683 5688 5691 5695 5699 5703 5707 5710 5712 5716 5718 5719 5723 5726 5728 5731 5733 5735 5736 5738 5743 5748 5752 5756 5759 5764 5767 5770 5773 5774 5776 5780 5782 5783 5785 5788 5790 5791 5794 5796 5797 5799 5801 5802 5804 5807 5810 5812 5813 5815 5817 5819 5821 5822 5823 5824 5825 5826 5827 5827 5828 5830 5831 5832 5833 5834 5834 5835 5836 5831 5825 5826 5833 5838 5840 5841 5842 5841 5840 5839 5838 5838 5837 5836 5834 5832 5830
5674 5678 5682 5686 5691 5695 5698 5702 5705 5709 5713 5713 5716 5720 5721 5723 5725 5727 5730 5728 5729 5738 5744 5747 5751 5755 5760 5763 5766 5768 5768 5773 5777 5777 5779 5782 5783 5785 5787 5789 5792 5793 5796 5797 5798 5801 5804 5807 5808 5809 5811 5813 5815 5816 5817 5819 5819 5819 5822 5824 5824 5824 5826 5827 5828 5829 5829 5830 5832 5831 5829 5825 5821 5825 5832 5835 5838 5839 5839 5837 5836 5835 5835 5834 5833 5831 5829 5828
5670 5673 5677 5682 5686 5689 5693 5697 5701 5705 5707 5708 5713 5715 5716 5719 5719 5722 5724 5719 5723 5735 5739 5742 5747 5751 5755 5758 5760 5761 5765 5771 5772 5772 5776 5777 5778 5781 5782 5784 5788 5789 5791 5792 5794 5797 5800 5802 5803 5805 5806 5808 5810 5811 5812 5813 5814 5815 5818 5819 5820 5821 5822 5822 5823 5824 5825 5826 5827 5826 5827 5826 5819 5817 5822 5829 5834 5836 5836 5835 5833 5832 5832 5831 5830 5828 5827 5825
5665 5668 5673 5677 5680 5683 5689 5693 5697 5700 5702 5706 5708 5709 5711 5713 5713 5716 5714 5712 5721 5731 5736 5740 5743 5746 5749 5752 5754 5757 5761 5765 5765 5768 5771 5771 5772 5776 5777 5780 5783 5783 5786 5788 5789 5792 5795 5797 5798 5799 5801 5803 5805 5807 5808 5808 5810 5812 5814 5814 5816 5816 5817 5818 5818 5820 5820 5821 5823 5822 5823 5825 5820 5811 5812 5822 5829 5831 5832 5831 5830 5829 5828 5828 5827 5825 5824 5822
5660 5664 5668 5671 5674 5680 5686 5689 5692 5695 5698 5701 5702 5703 5706 5705 5708 5709 5703 5710 5723 5728 5732 5737 5738 5741 5745 5748 5750 5753 5756 5758 5761 5763 5764 5765 5768 5771 5773 5775 5777 5778 5781 5783 5785 5788 5790 5792 5793 5794 5797 5799 5801 5802 5803 5805 5806 5808 5809 5810 5811 5811 5812 5813 5814 5816 5815 5816 5819 5818 5819 5823 5816 5804 5807 5819 5823 5825 5827 5827 5826 5825 5824 5824 5823 5822 5821 5819
5656 5659 5662 5666 5671 5676 5681 5684 5686 5689 5692 5694 5696 5697 5698 5699 5702 5698 5698 5715 5726 5722 5725 5732 5735 5738 5741 5743 5746 5748 5750 5752 5755 5757 5759 5762 5763 5765 5768 5770 5772 5774 5776 5779 5781 5784 5786 5787 5789 5791 5793 5795 5797 5797 5798 5800 5801 5803 5804 5804 5805 5805 5807 5808 5809 5811 5809 5811 5816 5814 5815 5818 5809 5799 5805 5815 5818 5819 5821 5822 5821 5821 5820 5819 5819 5818 5817 5816
5651 5654 5658 5663 5667 5671 5676 5678 5679 5683 5685 5688 5689 5690 5692 5693 5690 5690 5702 5719 5718 5712 5719 5728 5732 5736 5736 5737 5740 5742 5745 5746 5749 5752 5754 5757 5758 5760 5764 5766 5769 5771 5772 5776 5778 5779 5781 5782 5785 5787 5788 5790 5791 5791 5793 5794 5796 5798 5799 5800 5801 5801 5802 5802 5803 5804 5804 5807 5811 5811 5811 5809 5800 5798 5804 5811 5814 5815 5816 5815 5815 5816 5815 5814 5814 5814 5813 5811
5646 5650 5654 5658 5662 5667 5671 5672 5673 5677 5680 5682 5683 5684 5686 5683 5682 5691 5707 5714 5708 5706 5716 5723 5727 5729 5729 5730 5733 5736 5739 5740 5743 5745 5748 5750 5752 5755 5758 5760 5763 5765 5767 5770 5771 5773 5775 5776 5778 5780 5782 5785 5785 5786 5788 5790 5792 5793 5795 5796 5796 5796 5796 5796 5797 5797 5798 5803 5806 5807 5805 5798 5793 5796 5802 5807 5811 5812 5812 5811 5809 5809 5810 5810 5809 5809 5808 5807
5641 5645 5649 5653 5657 5662 5665 5666 5668 5672 5675 5677 5678 5678 5676 5674 5681 5695 5703 5704 5702 5704 5712 5718 5720 5720 5721 5723 5727 5731 5733 5734 5738 5739 5741 5744 5745 5749 5753 5755 5758 5761 5763 5763 5764 5768 5769 5770 5774 5776 5777 5780 5781 5782 5783 5784 5786 5787 5789 5789 5788 5791 5790 5789 5791 5792 5793 5798 5800 5800 5797 5790 5789 5794 5797 5802 5807 5809 5809 5809 5806 5803 5803 5804 5805 5804 5803 5802
5636 5640 5644 5648 5651 5655 5660 5662 5665 5668 5670 5673 5673 5668 5666 5671 5684 5694 5694 5695 5698 5702 5707 5708 5709 5712 5715 5718 5722 5726 5727 5729 5733 5734 5735 5738 5741 5746 5749 5751 5754 5757 5758 5758 5760 5764 5764 5764 5769 5771 5772 5774 5775 5776 5777 5778 5779 5780 5782 5781 5782 5786 5786 5784 5786 5788 5790 5790 5790 5791 5787 5785 5789 5790 5791 5796 5802 5805 5805 5804 5803 5800 5798 5799 5800 5799 5798 5797
5631 5635 5638 5642 5646 5651 5657 5658 5660 5663 5664 5665 5662 5657 5662 5673 5684 5686 5687 5689 5693 5698 5700 5697 5699 5705 5709 5713 5717 5720 5722 5725 5728 5728 5730 5733 5736 5741 5745 5748 5751 5752 5753 5755 5755 5757 5758 5758 5762 5765 5766 5768 5769 5770 5771 5772 5773 5775 5776 5776 5778 5782 5782 5780 5781 5783 5783 5779 5779 5782 5781 5783 5788 5784 5784 5792 5796 5799 5800 5799 5799 5797 5795 5795 5794 5794 5793 5792
5626 5630 5633 5637 5642 5646 5651 5653 5655 5656 5658 5656 5652 5654 5664 5672 5676 5677 5680 5683 5687 5692 5693 5690 5692 5699 5704 5708 5711 5714 5717 5720 5722 5723 5725 5728 5730 5735 5741 5743 5746 5747 5750 5751 5749 5750 5752 5751 5755 5758 5758 5761 5763 5763 5764 5766 5767 5768 5769 5770 5774 5775 5775 5775 5774 5774 5774 5771 5772 5777 5776 5778 5781 5777 5779 5789 5792 5792 5794 5794 5794 5793 5793 5792 5790 5789 5788 5786
5621 5625 5629 5633 5637 5640 5644 5647 5648 5650 5651 5648 5645 5653 5661 5665 5669 5672 5674 5677 5681 5684 5685 5684 5686 5692 5696 5700 5704 5708 5710 5712 5715 5718 5721 5722 5724 5731 5737 5738 5741 5743 5745 5745 5742 5743 5746 5745 5746 5750 5751 5754 5756 5756 5757 5759 5760 5761 5762 5766 5768 5768 5769 5770 5767 5767 5768 5765 5766 5771 5771 5770 5772 5774 5777 5783 5785 5786 5787 5788 5788 5788 5789 5788 5786 5785 5783 5781
5615 5619 5624 5629 5632 5634 5637 5639 5641 5642 5641 5638 5640 5648 5654 5659 5664 5665 5667 5672 5674 5676 5678 5679 5681 5684 5688 5692 5696 5701 5703 5705 5709 5712 5714 5717 5720 5727 5731 5732 5735 5738 5738 5738 5735 5737 5740 5739 5739 5743 5745 5746 5747 5749 5751 5754 5755 5756 5758 5761 5763 5763 5763 5762 5761 5762 5763 5760 5760 5764 5764 5763 5768 5773 5775 5775 5777 5779 5781 5782 5783 5784 5784 5783 5782 5781 5778 5776
5608 5612 5618 5622 5624 5626 5629 5630 5631 5631 5630 5631 5636 5643 5648 5652 5656 5658 5662 5666 5667 5669 5672 5674 5676 5677 5680 5684 5687 5692 5696 5698 5701 5704 5707 5710 5715 5720 5724 5725 5727 5730 5731 5730 5729 5731 5733 5733 5733 5735 5737 5738 5740 5744 5747 5749 5751 5752 5753 5755 5756 5757 5756 5755 5754 5756 5757 5756 5757 5758 5757 5759 5766 5769 5769 5769 5771 5773 5774 5775 5777 5779 5778 5776 5776 5776 5774 5771
5600 5605 5612 5615 5616 5619 5621 5620 5620 5620 5622 5626 5632 5637 5642 5646 5649 5653 5657 5659 5660 5663 5667 5669 5671 5671 5673 5677 5680 5685 5690 5691 5694 5697 5699 5703 5709 5713 5716 5719 5721 5723 5723 5722 5723 5726 5727 5728 5728 5728 5730 5733 5737 5742 5743 5743 5745 5746 5746 5748 5749 5750 5749 5747 5746 5749 5751 5752 5754 5754 5753 5755 5760 5762 5763 5765 5765 5765 5767 5769 5771 5773 5772 5771 5771 5769 5768 5767
5592 5598 5605 5607 5608 5611 5611 5610 5612 5613 5615 5621 5627 5632 5636 5640 5644 5648 5651 5653 5654 5657 5660 5663 5666 5667 5668 5672 5675 5679 5682 5684 5687 5691 5693 5699 5705 5707 5709 5713 5714 5716 5716 5716 5719 5722 5722 5722 5722 5722 5724 5727 5730 5734 5735 5735 5737 5738 5738 5740 5742 5740 5741 5740 5740 5743 5747 5747 5750 5751 5747 5749 5754 5757 5759 5760 5760 5759 5759 5761 5764 5764 5765 5766 5765 5763 5761 5760
5586 5592 5597 5598 5599 5601 5600 5601 5604 5605 5609 5617 5622 5625 5629 5633 5636 5640 5644 5647 5649 5652 5655 5657 5661 5662 5664 5667 5669 5671 5676 5678 5680 5684 5689 5694 5697 5699 5702 5705 5707 5709 5709 5710 5712 5714 5713 5712 5714 5715 5716 5719 5722 5725 5727 5728 5729 5729 5730 5733 5734 5734 5736 5737 5736 5739 5739 5739 5744 5745 5740 5743 5749 5752 5754 5755 5755 5755 5753 5754 5757 5758 5759 5760 5758 5757 5756 5754
5580 5584 5586 5588 5592 5592 5591 5595 5599 5601 5607 5614 5616 5617 5621 5624 5629 5633 5638 5641 5644 5647 5650 5652 5655 5657 5659 5661 5663 5665 5669 5671 5674 5679 5683 5686 5689 5692 5695 5697 5698 5700 5702 5703 5705 5706 5705 5705 5708 5708 5708 5711 5714 5716 5718 5719 5720 5721 5724 5728 5730 5732 5732 5731 5732 5733 5730 5733 5739 5735 5730 5738 5745 5747 5749 5749 5748 5749 5749 5749 5750 5751 5753 5753 5750 5749 5749 5748
5571 5573 5576 5580 5583 5582 5584 5591 5595 5597 5602 5605 5605 5610 5615 5617 5622 5628 5631 5635 5637 5640 5644 5646 5649 5651 5654 5655 5656 5659 5662 5664 5668 5673 5675 5679 5683 5686 5688 5689 5690 5692 5694 5695 5697 5698 5697 5698 5700 5700 5700 5702 5706 5708 5710 5714 5717 5718 5721 5725 5726 5727 5725 5724 5726 5725 5722 5728 5732 5724 5723 5734 5742 5742 5742 5742 5741 5744 5745 5744 5743 5743 5745 5746 5743 5740 5741 5742
5561 5564 5569 5572 5573 5574 5578 5585 5586 5586 5591 5594 5596 5603 5608 5612 5619 5622 5624 5627 5630 5634 5637 5639 5643 5645 5647 5649 5650 5653 5656 5659 5662 5665 5669 5674 5677 5679 5681 5682 5683 5685 5686 5687 5689 5689 5688 5688 5692 5693 5694 5697 5702 5704 5705 5709 5711 5711 5714 5717 5717 5718 5718 5717 5715 5714 5717 5722 5720 5717 5721 5728 5734 5737 5737 5737 5736 5736 5737 5738 5737 5737 5738 5737 5734 5731 5732 5734
5552 5557 5563 5565 5565 5566 5571 5577 5578 5579 5585 5588 5590 5597 5602 5608 5613 5613 5614 5619 5624 5628 5630 5632 5635 5637 5639 5643 5645 5647 5651 5653 5655 5659 5664 5667 5669 5672 5674 5675 5676 5678 5679 5680 5681 5680 5679 5680 5685 5688 5689 5693 5699 5699 5696 5699 5701 5702 5706 5708 5708 5709 5710 5707 5704 5708 5715 5712 5706 5713 5720 5718 5723 5732 5734 5732 5731 5729 5730 5732 5731 5731 5730 5728 5726 5723 5722 5724
5545 5551 5556 5557 5556 5558 5563 5569 5572 5576 5580 5581 5584 5590 5595 5599 5602 5602 5607 5614 5618 5620 5621 5622 5626 5630 5634 5638 5640 5641 5645 5646 5647 5652 5657 5660 5662 5665 5665 5667 5669 5670 5672 5672 5672 5672 5671 5673 5679 5682 5683 5687 5693 5693 5690 5691 5695 5697 5698 5700 5701 5702 5701 5699 5698 5705 5708 5700 5697 5710 5715 5709 5714 5724 5727 5727 5727 5726 5726 5726 5725 5724 5723 5721 5719 5716 5716 5717
5538 5544 5548 5548 5549 5552 5557 5562 5566 5569 5571 5573 5575 5580 5584 5589 5593 5597 5603 5608 5608 5610 5612 5615 5621 5627 5630 5632 5633 5634 5637 5639 5640 5646 5652 5655 5656 5657 5658 5660 5662 5664 5666 5666 5666 5666 5664 5667 5675 5676 5675 5680 5685 5687 5687 5687 5687 5689 5690 5692 5693 5693 5693 5693 5694 5699 5700 5694 5694 5703 5704 5701 5708 5717 5720 5722 5721 5720 5720 5719 5718 5718 5718 5715 5711 5710 5711 5711
5532 5537 5540 5540 5541 5546 5550 5555 5557 5559 5563 5564 5565 5571 5577 5582 5587 5592 5595 5598 5600 5603 5607 5610 5618 5623 5623 5624 5625 5625 5630 5633 5636 5642 5647 5648 5649 5650 5652 5655 5657 5658 5659 5659 5660 5660 5660 5663 5670 5669 5667 5670 5677 5681 5682 5680 5679 5679 5680 5682 5684 5685 5688 5688 5689 5692 5692 5688 5691 5695 5693 5695 5704 5711 5713 5715 5714 5712 5712 5712 5712 5712 5713 5710 5706 5705 5704 5704
5526 5528 5531 5531 5532 5538 5542 5546 5548 5550 5553 5555 5558 5565 5571 5574 5581 5586 5587 5589 5593 5597 5600 5606 5613 5615 5614 5615 5615 5618 5625 5629 5630 5636 5639 5638 5640 5643 5644 5647 5649 5649 5651 5653 5653 5653 5654 5657 5662 5662 5657 5660 5671 5674 5673 5673 5672 5667 5668 5674 5678 5682 5682 5681 5682 5685 5686 5685 5687 5686 5683 5687 5700 5706 5703 5704 5705 5704 5705 5708 5708 5706 5705 5701 5699 5700 5699 5699
5517 5518 5522 5521 5523 5529 5533 5536 5538 5540 5543 5548 5553 5560 5564 5567 5574 5576 5576 5579 5585 5589 5594 5601 5605 5604 5603 5604 5608 5614 5621 5621 5622 5627 5627 5626 5630 5634 5635 5637 5640 5640 5642 5645 5645 5646 5648 5650 5654 5654 5648 5652 5664 5666 5664 5664 5657 5652 5661 5673 5677 5677 5675 5673 5674 5679 5682 5681 5678 5675 5676 5682 5692 5695 5693 5695 5699 5698 5699 5701 5699 5698 5697 5693 5692 5695 5695 5694